Regional Weather Roundup
Issued by NWS San Angelo, TX

Home | Current Version | Previous Version | Text Only | Print | Product List | Glossary On
Versions: 1 2 3 4 5 6 7 8 9 10 11 12 13 14 15 16 17 18 19 20 21 22 23 24 25 26 27 28 29 30 31 32 33 34 35 36 37 38 39 40 41 42 43 44 45 46 47 48 49 50
514
ASUS44 KSJT 231510
RWRSJT
WEST CENTRAL TEXAS REGIONAL WEATHER ROUNDUP
NATIONAL WEATHER SERVICE SAN ANGELO TX
900 AM CST MON JAN 23 2017

NOTE: "FAIR" INDICATES FEW OR NO CLOUDS BELOW 12,000 FEET WITH NO
SIGNIFICANT WEATHER AND/OR OBSTRUCTIONS TO VISIBILITY.

TXZ049-054-064>066-071>073-076>078-098-099-113-114-127-128-139-140-
154-155-168>170-231600
...LOCATIONS ACROSS WEST CENTRAL TEXAS...

CITY           SKY/WX    TMP DP  RH WIND       PRES   REMARKS
SAN ANGELO     SUNNY     42  34  73 SW6       30.01S WCI  38
ABILENE        SUNNY     45  35  68 S9        29.97S
DYESS AFB      SUNNY     46  38  71 SW9       29.94F
JUNCTION       SUNNY     38  31  76 CALM      30.04F
SWEETWATER     SUNNY     48  28  46 S10       29.97F
BROWNWOOD      SUNNY     39  34  81 CALM      30.02S
COLEMAN        SUNNY     45  34  65 S5        30.00S
SONORA         SUNNY     39  30  70 CALM      30.08S
OZONA          FAIR      37  30  75 MISG      30.06S
BRADY          NOT AVBL
$$

TEXAS PANHANDLE/OKLAHOMA PANHANDLE

CITY           SKY/WX    TMP DP  RH WIND       PRES   REMARKS
AMARILLO       SUNNY     42  29  59 SW17      29.85R WCI  34
BORGER         SUNNY     40  29  64 S8        29.82R WCI  34
CANADIAN         N/A     41  33  71 MISG        N/A
DALHART        CLOUDY    32  26  78 SW7       29.81R WCI  26
DUMAS          CLOUDY    34  27  75 SW13      29.81R WCI  25
GUYMON         NOT AVBL
HEREFORD       SUNNY     42  28  58 SW15      29.88S WCI  34
PAMPA          SUNNY     42  30  61 S14       29.84R WCI  35
PERRYTON       SUNNY     37  32  82 S12       29.78F WCI  29
$$

SOUTHERN PANHANDLE/SOUTH PLAINS/ROLLING PLAINS

CITY           SKY/WX    TMP DP  RH WIND       PRES   REMARKS
LUBBOCK        MOSUNNY   41  30  65 W6        29.91R WCI  37
SNYDER         SUNNY     35  31  85 S7        29.96S WCI  30
CHILDRESS      SUNNY     40  31  70 S6        29.91S WCI  36
SEMINOLE       SUNNY     41  29  61 SW9       29.95S WCI  36
$$

PERMIAN BASIN

CITY           SKY/WX    TMP DP  RH WIND       PRES   REMARKS
MIDLAND        SUNNY     44  27  51 SW13      29.96F WCI  38
ODESSA         SUNNY     45  28  51 SW9       29.97F
WINK           MOSUNNY   41  31  67 S5        29.97S WCI  38
$$

FAR WEST/SOUTHWEST MOUNTAINS/TRANS PECOS

CITY           SKY/WX    TMP DP  RH WIND       PRES   REMARKS
ALPINE         MOSUNNY   50  27  40 S9G21     30.13F
DRYDEN           N/A     55  27  34 SW12      30.03S
EL PASO        PTCLDY    41  27  57 CALM      30.04S
FORT STOCKTON  SUNNY     57  34  41 SW17G24   30.00F
GUADALUPE PASS CLOUDY    43  28  55 W22       30.04F WCI  34
MARFA          CLOUDY    37  29  72 NE3       30.13S
PECOS          SUNNY     47  30  50 CALM      29.98S
$$

DALLAS/FORT WORTH METROPLEX

CITY           SKY/WX    TMP DP  RH WIND       PRES   REMARKS
DFW AIRPORT    SUNNY     48  34  58 NW3       29.99R
FTW MEACHAM    SUNNY     47  36  65 CALM      30.00S
DAL-EXECUTIVE  SUNNY     47  35  63 NW7       30.00R
GRAND PRAIRIE  SUNNY     46  32  57 W10       30.02R
ADDISON        NOT AVBL
MESQUITE       SUNNY     45  34  65 NW6       30.01R
LANCASTER      SUNNY     45  35  69 NW3       30.02R
$$

NORTH CENTRAL TEXAS

CITY           SKY/WX    TMP DP  RH WIND       PRES   REMARKS
SHRMAN/DENISON SUNNY     40  37  86 CALM      29.99S
GAINESVILLE    SUNNY     40  33  78 CALM      30.00S
BRIDGEPORT     SUNNY     42  38  83 CALM      30.01S
DENTON         SUNNY     40  35  83 CALM      29.99F
WAXAHACHIE     SUNNY     45  37  73 W3        30.02R
GRANBURY       SUNNY     43  37  79 CALM      30.02S
$$

WESTERN NORTH TEXAS

CITY           SKY/WX    TMP DP  RH WIND       PRES   REMARKS
WICHITA FALLS  MOSUNNY   39  35  86 SE5       29.94F WCI  36
VERNON         SUNNY     37  31  79 S5        29.96R WCI  34
BRECKENRIDGE   SUNNY     45  33  64 S6        29.98S
COMANCHE       SUNNY     46  37  69 CALM      30.01S
$$

CENTRAL AND SOUTH CENTRAL TEXAS

CITY           SKY/WX    TMP DP  RH WIND       PRES   REMARKS
AUSTIN/BERGSTM SUNNY     52  37  56 CALM      30.05R
WACO           SUNNY     47  37  68 W6        30.03R
HILLSBORO      NOT AVBL
TEMPLE         SUNNY     48  39  71 W6        30.05R
KILLEEN-GRAY   SUNNY     53  36  53 CALM      30.03R
FORT HOOD      SUNNY     49  36  61 CALM      30.01R
GEORGETOWN     SUNNY     50  36  57 CALM      30.05R
LAGO VISTA     FAIR      55  35  47 CALM      30.04R
SAN MARCOS     NOT AVBL
NEW BRAUNFELS  SUNNY     52  39  61 NW5       30.04R
RANDOLPH AFB   SUNNY     53  36  51 W3        30.05R
SAN ANTONIO    SUNNY     52  36  54 NW3       30.06R
STINSON        SUNNY     55  37  50 CALM      30.05R
PLEASANTON     NOT AVBL
LA GRANGE      SUNNY     54  41  61 NW5       30.03R
GIDDINGS       SUNNY     53  37  54 NW6       30.05R
$$

EAST TEXAS

CITY           SKY/WX    TMP DP  RH WIND       PRES   REMARKS
PARIS          SUNNY     41  34  75 N10       29.96R WCI  35
CLARKSVILLE    NOT AVBL
TYLER          SUNNY     46  34  62 N10       29.97R
LONGVIEW       SUNNY     46  36  68 N9        29.96R
PALESTINE      SUNNY     46  36  67 NW7       30.01R
NACOGDOCHES    SUNNY     48  34  57 N12       29.95R
$$

TEXAS HILL COUNTRY AND EDWARDS PLATEAU

CITY           SKY/WX    TMP DP  RH WIND       PRES   REMARKS
LLANO          SUNNY     45  36  70 CALM      30.08S
HORSESHOE BAY  FAIR      47  39  74 CALM      30.05R
KERRVILLE      SUNNY     39  35  86 W3        30.06R
FREDERICKSBRG  SUNNY     41  32  70 CALM      30.04S
ROCKSPRINGS    SUNNY     55  28  35 CALM      30.08R
HONDO          SUNNY     50  36  58 N6        30.06R
UVALDE         SUNNY     47  33  57 CALM      30.08S
DEL RIO        SUNNY     46  36  68 CALM      30.06R
$$

SOUTHEAST TEXAS

CITY           SKY/WX    TMP DP  RH WIND       PRES   REMARKS
COLLEGE STN    SUNNY     50  38  63 NW7       30.03R
CALDWELL       NOT AVBL
CROCKETT         N/A    N/A N/A N/A MISG        N/A
BRENHAM        SUNNY     52  42  67 W6        30.05R
HUNTSVILLE     SUNNY     51  34  52 NW9       30.01R
CONROE         MOSUNNY   52  35  52 NW10      30.01R
HOUSTON BUSH   SUNNY     54  36  50 W8        30.02R
HOUSTON HOBBY  SUNNY     56  34  43 NW10      30.02R
PERLAND        SUNNY     55  38  52 NW9       30.03R
WHARTON        SUNNY     53  40  62 NW6       30.05R
$$

THE UPPER TEXAS COAST

CITY           SKY/WX    TMP DP  RH WIND       PRES   REMARKS
ORANGE         SUNNY     53  37  53 N9        29.98R
PORT ARTHUR    SUNNY     55  36  48 NW9       29.96R
GALVESTON      SUNNY     56  43  61 W10       30.02R
ANGLETON       SUNNY     57  40  52 NW7       30.03R
BAY CITY       SUNNY     53  44  70 NW6       30.04R
$$

TEXAS COASTAL BEND, RIO GRANDE PLAINS DEEP SOUTH TEXAS

CITY           SKY/WX    TMP DP  RH WIND       PRES   REMARKS
VICTORIA       SUNNY     55  42  61 N7        30.05R
BEEVILLE       FAIR      54  39  58 NW9       30.06R
ROCKPORT       SUNNY     60  41  49 N7        30.05R
PORT ARANSAS   SUNNY     57  42  58 N6        30.06R
PORT LAVACA    SUNNY     54  43  67 CALM      30.06R
CORPUS CHRISTI SUNNY     57  36  45 NW9       30.07R
KINGSVILLE NAS MOSUNNY   57  37  47 W5        30.08R
COTULLA        SUNNY     52  32  46 W7        30.09R
LAREDO         SUNNY     54  36  50 CALM      30.09R
BROWNSVILLE    SUNNY     62  36  37 W6        30.09R
PORT ISABEL    SUNNY     59  38  45 W5        30.08R
HEBBRONVILLE   SUNNY     60  29  30 W7        30.08S
MCALLEN        SUNNY     61  31  32 W5        30.10R
WESLACO        SUNNY     59  36  42 W5        30.08S
FALFURRIAS     SUNNY     55  32  42 W5        30.09R
EDINBURG       SUNNY     60  32  35 SW3       30.10R
$$




USA.gov is the U.S. government's official web portal to all federal, state and local government web resources and services.